When you browse on this site, cookies collect data to enhance your experience and personalize the content and advertising you see.
Visit our Privacy Policy to learn more. By continuing to use the site, you agree to this use of cookies and data.
  • In Schweiz
  • Länderverzeichnis
  • Für 7 Tage
  • Wassertemperatur
  • Satellitenkarten
  • Wetterkarte
  • Widgets
  • user-avatar
    Anmelden

    Stündliche Wetter Bischkek

    Heute, 21 Januar, Montag

    Zeit Temperatur Niederschläge Wind Luftdruck Luftfeuchtigkeit
    00:00 -17°C° 0.1 mm 1 m/S 478 mmHg 73%
    01:00 -17°C° 0.1 mm 1 m/S 478 mmHg 78%
    02:00 -17°C° 0.1 mm 1 m/S 478 mmHg 83%
    03:00 -17°C° 0.2 mm 1 m/S 478 mmHg 85%
    04:00 -18°C° 0.2 mm 1 m/S 478 mmHg 87%
    05:00 -20°C° 0 mm 2 m/S 478 mmHg 84%
    06:00 -20°C° 0.1 mm 2 m/S 479 mmHg 83%
    07:00 -21°C° 0.1 mm 2 m/S 479 mmHg 82%
    08:00 -21°C° 0.1 mm 2 m/S 479 mmHg 81%
    09:00 -20°C° 0.1 mm 2 m/S 480 mmHg 83%
    10:00 -19°C° 0.1 mm 2 m/S 480 mmHg 86%
    11:00 -19°C° 0 mm 3 m/S 481 mmHg 86%
    12:00 -19°C° 0.1 mm 3 m/S 481 mmHg 88%
    13:00 -18°C° 0.1 mm 2 m/S 482 mmHg 90%
    14:00 -18°C° 0.1 mm 2 m/S 482 mmHg 92%
    15:00 -17°C° 0.2 mm 1 m/S 481 mmHg 93%
    16:00 -18°C° 0.2 mm 1 m/S 481 mmHg 94%
    17:00 -19°C° 0.2 mm 1 m/S 480 mmHg 95%
    18:00 -20°C° 0.1 mm 1 m/S 480 mmHg 91%
    19:00 -21°C° 0.1 mm 1 m/S 479 mmHg 88%
    20:00 -24°C° 0.1 mm 2 m/S 479 mmHg 84%
    21:00 -24°C° 0 mm 2 m/S 479 mmHg 74%
    22:00 -25°C° 0 mm 2 m/S 479 mmHg 65%
    23:00 -25°C° 0 mm 2 m/S 478 mmHg 55%

    Morgen, 22 Januar, Dienstag

    Zeit Temperatur Niederschläge Wind Luftdruck Luftfeuchtigkeit
    00:00 -25°C° 0 mm 2 m/S 478 mmHg 51%
    01:00 -24°C° 0 mm 2 m/S 478 mmHg 48%
    02:00 -24°C° 0 mm 2 m/S 478 mmHg 44%
    03:00 -24°C° 0 mm 2 m/S 478 mmHg 44%
    04:00 -24°C° 0 mm 2 m/S 477 mmHg 44%
    05:00 -24°C° 0 mm 2 m/S 477 mmHg 43%
    06:00 -24°C° 0 mm 2 m/S 477 mmHg 44%
    07:00 -24°C° 0 mm 2 m/S 477 mmHg 44%
    08:00 -24°C° 0 mm 2 m/S 477 mmHg 44%
    09:00 -21°C° 0 mm 2 m/S 478 mmHg 50%
    10:00 -19°C° 0 mm 2 m/S 479 mmHg 55%
    11:00 -16°C° 0 mm 1 m/S 480 mmHg 60%
    12:00 -15°C° 0 mm 1 m/S 480 mmHg 64%
    13:00 -15°C° 0 mm 1 m/S 479 mmHg 67%
    14:00 -15°C° 0 mm 1 m/S 479 mmHg 70%
    15:00 -16°C° 0 mm 1 m/S 478 mmHg 70%
    16:00 -20°C° 0 mm 2 m/S 477 mmHg 70%
    17:00 -21°C° 0 mm 2 m/S 476 mmHg 70%
    18:00 -21°C° 0 mm 2 m/S 476 mmHg 61%
    19:00 -21°C° 0 mm 2 m/S 476 mmHg 52%
    20:00 -21°C° 0 mm 2 m/S 476 mmHg 43%
    21:00 -21°C° 0 mm 2 m/S 477 mmHg 42%
    22:00 -21°C° 0 mm 2 m/S 477 mmHg 41%
    23:00 -21°C° 0 mm 2 m/S 477 mmHg 39%

    übermorgen, 23 Januar, Mittwoch

    Zeit Temperatur Niederschläge Wind Luftdruck Luftfeuchtigkeit
    00:00 -21°C° 0 mm 2 m/S 477 mmHg 40%
    01:00 -21°C° 0 mm 2 m/S 477 mmHg 41%
    02:00 -21°C° 0 mm 2 m/S 477 mmHg 41%
    03:00 -21°C° 0 mm 2 m/S 477 mmHg 41%
    04:00 -21°C° 0 mm 2 m/S 477 mmHg 40%
    05:00 -23°C° 0 mm 2 m/S 476 mmHg 39%
    06:00 -23°C° 0 mm 2 m/S 477 mmHg 38%
    07:00 -23°C° 0 mm 2 m/S 477 mmHg 37%
    08:00 -23°C° 0 mm 2 m/S 477 mmHg 37%
    09:00 -20°C° 0 mm 2 m/S 478 mmHg 42%
    10:00 -17°C° 0 mm 1 m/S 479 mmHg 48%
    11:00 -15°C° 0 mm 1 m/S 480 mmHg 53%
    12:00 -15°C° 0 mm 1 m/S 480 mmHg 58%
    13:00 -15°C° 0 mm 1 m/S 480 mmHg 63%
    14:00 -15°C° 0 mm 1 m/S 480 mmHg 68%
    15:00 -17°C° 0 mm 1 m/S 479 mmHg 70%
    16:00 -20°C° 0 mm 2 m/S 478 mmHg 72%
    17:00 -23°C° 0 mm 2 m/S 477 mmHg 74%
    18:00 -23°C° 0 mm 2 m/S 477 mmHg 66%
    19:00 -23°C° 0 mm 2 m/S 477 mmHg 58%
    20:00 -24°C° 0 mm 3 m/S 477 mmHg 51%
    21:00 -24°C° 0 mm 3 m/S 478 mmHg 48%
    22:00 -24°C° 0 mm 3 m/S 478 mmHg 46%
    23:00 -24°C° 0 mm 3 m/S 478 mmHg 44%

    24 Januar, Donnerstag

    Zeit Temperatur Niederschläge Wind Luftdruck Luftfeuchtigkeit
    00:00 -25°C° 0 mm 3 m/S 478 mmHg 44%
    01:00 -24°C° 0 mm 2 m/S 478 mmHg 44%
    02:00 -24°C° 0 mm 2 m/S 478 mmHg 44%
    03:00 -24°C° 0 mm 2 m/S 478 mmHg 46%
    04:00 -24°C° 0 mm 2 m/S 478 mmHg 47%
    05:00 -24°C° 0 mm 2 m/S 478 mmHg 49%
    06:00 -24°C° 0 mm 2 m/S 479 mmHg 51%
    07:00 -24°C° 0 mm 2 m/S 479 mmHg 53%
    08:00 -23°C° 0 mm 2 m/S 480 mmHg 56%
    09:00 -21°C° 0 mm 2 m/S 481 mmHg 58%
    10:00 -20°C° 0 mm 2 m/S 482 mmHg 61%
    11:00 -19°C° 0 mm 2 m/S 483 mmHg 63%
    12:00 -19°C° 0 mm 2 m/S 482 mmHg 66%
    13:00 -19°C° 0 mm 2 m/S 482 mmHg 70%
    14:00 -19°C° 0 mm 2 m/S 482 mmHg 73%
    15:00 -20°C° 0.1 mm 2 m/S 482 mmHg 76%
    16:00 -21°C° 0.1 mm 2 m/S 481 mmHg 79%
    17:00 -23°C° 0.1 mm 2 m/S 480 mmHg 81%
    18:00 -23°C° 0.1 mm 2 m/S 481 mmHg 79%
    19:00 -25°C° 0.1 mm 3 m/S 481 mmHg 76%
    20:00 -25°C° 0.1 mm 3 m/S 481 mmHg 74%
    21:00 -25°C° 0 mm 3 m/S 481 mmHg 73%
    22:00 -25°C° 0 mm 3 m/S 481 mmHg 73%
    23:00 -26°C° 0 mm 4 m/S 481 mmHg 72%

    25 Januar, Freitag

    Zeit Temperatur Niederschläge Wind Luftdruck Luftfeuchtigkeit
    00:00 -26°C° 0 mm 3 m/S 481 mmHg 73%
    01:00 -26°C° 0 mm 3 m/S 481 mmHg 73%
    02:00 -26°C° 0 mm 3 m/S 481 mmHg 74%
    03:00 -26°C° 0 mm 3 m/S 481 mmHg 73%
    04:00 -27°C° 0 mm 3 m/S 481 mmHg 73%
    05:00 -26°C° 0 mm 2 m/S 480 mmHg 72%
    06:00 -27°C° 0 mm 3 m/S 481 mmHg 71%
    07:00 -27°C° 0 mm 3 m/S 481 mmHg 70%
    08:00 -27°C° 0 mm 3 m/S 481 mmHg 69%
    09:00 -25°C° 0 mm 3 m/S 482 mmHg 69%
    10:00 -21°C° 0 mm 2 m/S 483 mmHg 68%
    11:00 -19°C° 0 mm 2 m/S 485 mmHg 68%
    12:00 -19°C° 0 mm 2 m/S 484 mmHg 69%
    13:00 -16°C° 0 mm 1 m/S 484 mmHg 70%
    14:00 -16°C° 0 mm 1 m/S 484 mmHg 70%
    15:00 -20°C° 0 mm 2 m/S 483 mmHg 72%
    16:00 -23°C° 0 mm 3 m/S 482 mmHg 74%
    17:00 -25°C° 0 mm 3 m/S 480 mmHg 76%
    18:00 -25°C° 0 mm 3 m/S 480 mmHg 70%
    19:00 -26°C° 0 mm 4 m/S 480 mmHg 63%
    20:00 -26°C° 0 mm 4 m/S 480 mmHg 56%
    21:00 -26°C° 0 mm 4 m/S 480 mmHg 50%
    22:00 -26°C° 0 mm 4 m/S 480 mmHg 45%
    23:00 -26°C° 0 mm 4 m/S 480 mmHg 39%

    26 Januar, Samstag

    Zeit Temperatur Niederschläge Wind Luftdruck Luftfeuchtigkeit
    00:00 -26°C° 0 mm 4 m/S 480 mmHg 36%
    01:00 -26°C° 0 mm 4 m/S 480 mmHg 33%
    02:00 -26°C° 0 mm 4 m/S 480 mmHg 30%
    03:00 -26°C° 0 mm 4 m/S 480 mmHg 29%
    04:00 -26°C° 0 mm 4 m/S 480 mmHg 28%
    05:00 -26°C° 0 mm 4 m/S 480 mmHg 27%
    06:00 -26°C° 0 mm 4 m/S 480 mmHg 27%
    07:00 -25°C° 0 mm 4 m/S 480 mmHg 27%
    08:00 -25°C° 0 mm 4 m/S 480 mmHg 27%
    09:00 -22°C° 0 mm 3 m/S 481 mmHg 33%
    10:00 -18°C° 0 mm 2 m/S 483 mmHg 39%
    11:00 -16°C° 0 mm 2 m/S 484 mmHg 45%
    12:00 -16°C° 0 mm 2 m/S 483 mmHg 47%
    13:00 -16°C° 0 mm 2 m/S 483 mmHg 50%
    14:00 -15°C° 0 mm 2 m/S 483 mmHg 52%
    15:00 -17°C° 0 mm 2 m/S 481 mmHg 50%
    16:00 -21°C° 0 mm 3 m/S 480 mmHg 48%
    17:00 -24°C° 0 mm 4 m/S 479 mmHg 46%
    18:00 -24°C° 0 mm 4 m/S 479 mmHg 41%
    19:00 -24°C° 0 mm 4 m/S 479 mmHg 35%
    20:00 -24°C° 0 mm 4 m/S 479 mmHg 29%
    21:00 -24°C° 0 mm 4 m/S 480 mmHg 28%
    22:00 -24°C° 0 mm 4 m/S 480 mmHg 27%
    23:00 -24°C° 0 mm 4 m/S 480 mmHg 26%
    Mehr zeigen